This is the latest recevied weather packets stored in our database for station/object K5OLV. If no packets are shown the sender has not sent any weather packets the latest 1 day(s).
| Time | Temp. | Humidity | Pressure | Rain* | Wind** | Luminosity | Snow |
|---|---|---|---|---|---|---|---|
| 1778069749 | 17.22° C | 93% | 1010.4 hPa | 0 mm | - | 7 W/m² | - |
| 1778068840 | 17.78° C | 91% | 1009.8 hPa | 0 mm | - | 11 W/m² | - |
| 1778068538 | 17.78° C | 91% | 1010 hPa | 0 mm | - | 10 W/m² | - |
| 1778067632 | 17.78° C | 91% | 1009.5 hPa | 0 mm | - | 11 W/m² | - |
| 1778066420 | 17.78° C | 90% | 1009.7 hPa | 0 mm | - | 3 W/m² | - |
| 1778065815 | 17.78° C | 89% | 1009.6 hPa | 0 mm | - | 1 W/m² | - |
| 1778065513 | 17.78° C | 89% | 1009.3 hPa | 0 mm | - | 1 W/m² | - |
| 1778065210 | 17.78° C | 89% | 1009.5 hPa | 0 mm | - | 0 W/m² | - |
| 1778064301 | 17.78° C | 88% | 1009.6 hPa | 0 mm | - | 0 W/m² | - |
| 1778063999 | 17.78° C | 88% | 1009.3 hPa | 0 mm | - | 0 W/m² | - |
| 1778062484 | 17.78° C | 87% | 1008.9 hPa | 0 mm | - | 0 W/m² | - |
| 1778061276 | 18.33° C | 86% | 1009 hPa | 0 mm | - | 0 W/m² | - |
| 1778060670 | 18.33° C | 86% | 1009.1 hPa | 0 mm | - | 0 W/m² | - |
| 1778060065 | 18.33° C | 85% | 1009.2 hPa | 0 mm | - | 0 W/m² | - |
| 1778059763 | 18.33° C | 85% | 1008.8 hPa | 0 mm | - | 0 W/m² | - |
| 1778059461 | 18.33° C | 85% | 1008.9 hPa | 0 mm | - | 0 W/m² | - |
| 1778059157 | 18.33° C | 85% | 1009.1 hPa | 0 mm | - | 0 W/m² | - |
| 1778058855 | 18.33° C | 84% | 1008.9 hPa | 0 mm | - | 0 W/m² | - |
| 1778058552 | 18.33° C | 84% | 1008.7 hPa | 0 mm | - | 0 W/m² | - |
| 1778057946 | 18.33° C | 84% | 1008.7 hPa | 0 mm | - | 0 W/m² | - |
| 1778057643 | 18.33° C | 84% | 1008.6 hPa | 0 mm | - | 0 W/m² | - |
| 1778057339 | 18.33° C | 84% | 1008.6 hPa | 0 mm | - | 0 W/m² | - |
| 1778057036 | 18.33° C | 84% | 1008.8 hPa | 0 mm | - | 0 W/m² | - |
| 1778056430 | 18.33° C | 84% | 1008.4 hPa | 0 mm | - | 0 W/m² | - |
| 1778056127 | 18.33° C | 84% | 1008.5 hPa | 0 mm | - | 0 W/m² | - |
* Rain latest hour (hover to see other rain measurements)
** Current wind speed in m/s (hover to see current wind gust speed)